Probability
0 0 1 3 4 3 1 0 0 0 0 0 0 0 0 0 0 1 7 23 32 23 14 12 9 6 4 3 3 2 1 0 0 0 0 0 0 0 0 0 0 0 0 0 0 0 0 0 0
0 0 1 3 3 2 0 0 0 0 0 0 0 0 0 0 1 4 14 28 31 20 13 13 10 7 4 3 3 3 1 0 0 0 0 0 0 0 0 0 0 0 0 0 0 0 0 0 0
0 0 0 1 1 0 0 0 0 0 0 0 1 2 2 1 2 9 21 31 27 17 13 13 11 8 4 3 3 3 2 1 0 0 0 0 0 0 0 0 0 0 0 0 0 0 0 0 0
0 0 0 0 0 0 0 0 0 0 0 1 3 7 9 6 5 12 22 25 22 18 16 14 12 8 4 3 4 4 3 2 1 0 0 0 0 0 0 0 0 0 0 0 0 0 0 0 0
0 0 0 0 0 0 0 0 0 0 0 1 6 13 16 11 9 14 20 22 22 23 22 18 14 9 4 4 4 4 4 2 1 0 0 0 0 0 0 0 0 0 0 0 0 0 0 0 0
0 0 0 0 0 0 0 0 0 0 1 1 8 17 20 16 14 16 19 23 28 33 29 23 17 10 5 5 5 4 3 1 0 0 0 0 0 0 0 0 0 0 0 0 0 0 0 0 0
0 0 0 0 0 0 0 0 0 0 1 2 8 19 25 23 21 20 20 26 37 42 35 25 18 11 6 5 5 4 2 1 0 0 0 0 0 0 0 0 0 0 0 0 0 0 0 0 0
0 0 0 0 0 0 0 0 0 0 1 2 7 22 34 33 28 25 25 33 45 46 34 23 18 13 8 4 4 3 2 1 0 0 0 0 0 0 0 0 0 0 0 0 0 0 0 0 0
0 0 0 0 0 0 0 0 0 0 1 4 12 28 42 40 33 31 34 43 52 48 34 24 20 15 8 4 3 3 3 2 1 1 1 1 0 0 0 0 0 0 0 0 0 0 0 0 0
0 0 0 0 0 0 0 0 0 0 2 8 20 34 41 40 38 38 41 50 59 54 40 31 26 18 11 7 5 4 3 3 3 2 2 2 1 0 1 1 0 0 0 0 0 0 0 0 0
0 0 0 0 0 0 0 1 1 1 4 11 25 37 38 38 42 44 46 54 62 58 46 41 37 29 23 19 12 7 5 4 4 4 3 3 2 2 2 2 1 0 0 0 0 0 0 1 1
0 0 0 0 0 0 0 0 1 2 5 11 24 37 41 41 47 51 52 56 60 57 51 49 49 45 43 37 25 15 11 8 7 7 5 4 4 5 6 4 2 1 0 0 0 0 1 1 0
0 0 0 0 0 0 0 1 2 3 5 7 18 35 46 48 52 55 55 57 59 57 54 56 59 60 61 54 40 28 22 18 16 13 8 5 7 10 10 8 5 3 2 1 1 1 2 1 1
0 0 0 0 0 0 1 2 3 4 4 6 15 32 46 54 57 58 60 62 62 58 56 60 65 69 69 63 51 40 34 30 26 21 14 10 13 16 15 10 8 7 5 4 4 3 3 3 2
0 0 0 0 0 0 1 3 5 4 4 5 13 29 47 59 63 64 67 70 69 63 60 61 65 69 69 63 53 45 41 37 35 33 26 20 21 21 16 10 9 9 7 5 5 4 3 3 3
0 0 0 0 0 0 1 4 5 4 3 5 11 27 48 64 69 70 72 73 71 67 65 62 62 66 66 61 54 48 44 44 44 43 37 29 26 23 15 9 9 9 6 4 3 4 4 3 3
0 0 0 1 0 0 1 2 4 4 4 6 13 27 49 68 71 70 71 70 68 68 66 62 61 63 64 61 59 55 53 52 49 48 43 35 30 24 16 12 12 12 7 3 3 5 5 3 3
0 0 0 0 0 0 0 1 2 3 4 7 15 29 50 68 70 68 69 68 66 65 64 63 62 62 62 61 60 60 58 54 50 49 47 41 33 25 18 15 16 14 10 5 4 5 5 3 3
0 0 0 0 0 0 0 0 1 3 4 7 15 31 50 67 71 67 66 65 63 62 62 61 60 59 58 58 58 59 56 50 47 47 47 43 34 25 19 17 18 15 11 7 4 4 4 3 3
0 0 0 0 0 0 0 0 1 3 4 6 14 28 46 64 72 68 64 61 60 59 59 58 56 55 54 55 56 56 53 47 42 43 45 41 35 26 20 19 17 13 11 8 6 4 3 3 3
0 0 0 0 0 0 0 0 1 2 3 5 11 22 39 59 70 67 61 58 56 56 56 54 51 51 52 53 53 52 50 43 37 39 42 40 35 28 22 17 13 11 10 9 8 6 4 3 2
0 0 0 0 0 0 0 1 2 3 4 5 9 18 35 53 63 63 58 55 53 52 52 49 47 48 50 50 51 51 47 40 35 38 41 37 32 27 22 15 11 9 9 9 8 8 5 2 1
0 0 0 0 0 0 0 1 2 3 5 6 9 18 34 52 59 58 54 51 49 48 46 43 42 43 45 46 49 50 46 39 36 39 41 36 29 25 20 15 11 8 7 7 8 8 6 2 0
0 0 0 0 0 0 0 1 2 3 4 6 10 18 33 49 55 53 49 45 44 42 40 38 37 38 39 40 44 45 42 39 37 37 37 32 27 23 17 14 12 8 6 8 8 7 5 2 0
0 0 0 0 0 0 0 0 1 3 3 4 9 17 28 40 47 48 46 40 37 36 35 34 34 33 33 34 37 38 36 35 34 32 31 28 24 21 17 14 12 9 7 7 7 5 3 1 1
0 0 0 0 0 0 0 0 1 3 3 3 7 13 20 28 35 40 42 38 33 32 33 35 34 30 29 31 34 34 31 29 27 26 27 26 22 20 19 17 13 9 6 6 6 5 2 1 1
0 0 0 0 0 0 0 0 1 3 3 3 7 12 16 21 27 32 36 35 32 31 34 36 34 29 29 31 32 31 28 26 24 23 23 23 21 19 20 18 13 9 7 6 5 3 2 2 2
0 0 0 0 0 0 0 0 2 4 4 4 8 14 17 20 25 30 32 33 32 32 34 34 33 31 29 28 26 25 24 25 26 21 19 21 21 21 21 17 13 10 8 6 4 2 1 2 2
0 0 0 0 0 0 0 0 2 4 5 5 8 15 19 21 26 31 33 33 33 34 35 34 33 31 25 21 19 18 18 21 22 18 17 20 23 22 19 14 11 9 6 4 3 2 2 1 1
0 0 0 0 0 0 0 1 2 4 5 5 8 15 19 22 27 32 33 33 34 35 36 36 34 28 21 17 15 14 14 16 15 15 17 19 22 21 16 12 10 6 4 3 3 3 2 1 1
Wind_Speed
9 12 11 9 6 6 7 1 7 9 9 10 9 9 14 14 10 10 12 19 23 22 19 18 17 17 16 15 15 14 14 14 14 14 14 14 14 15 15 15 15 15 16 16 16 15 15 15 14
11 14 11 8 6 5 3 4 7 9 9 8 7 9 14 15 13 13 15 20 23 22 19 17 19 17 16 15 15 14 14 14 14 14 13 13 14 14 15 15 15 15 15 16 15 15 15 14 13
14 17 9 8 9 7 1 5 8 8 7 6 7 10 12 11 12 12 16 21 21 20 18 19 19 18 17 16 15 14 14 14 14 13 13 13 13 14 15 15 15 15 15 15 15 15 14 13 11
9 10 8 8 11 7 1 6 6 6 6 5 7 10 11 9 9 14 18 20 21 20 20 19 19 18 17 16 15 15 14 14 13 13 13 13 13 14 15 15 15 15 15 15 14 14 13 11 9
11 9 10 10 11 6 2 5 4 4 5 5 7 13 12 9 13 17 17 19 19 20 19 19 19 18 17 16 15 15 14 14 13 13 13 13 13 14 14 14 14 14 14 14 13 13 11 10 7
9 9 10 9 9 4 3 4 3 3 4 5 6 12 11 10 13 15 16 16 18 20 20 18 19 18 17 16 15 14 14 13 13 13 13 13 13 14 14 14 14 14 13 12 12 11 10 8 6
11 11 13 11 9 4 3 4 3 3 4 4 4 9 11 12 13 15 14 15 18 20 19 16 16 15 16 16 15 14 14 14 13 13 13 13 14 13 13 13 13 13 12 11 11 10 9 8 5
12 12 16 13 7 3 4 5 1 2 4 4 3 7 11 14 15 15 14 14 16 18 18 17 16 14 13 13 15 15 14 14 13 13 13 14 14 13 13 12 12 12 11 10 10 10 9 7 4
15 13 13 12 5 2 4 5 3 2 4 3 4 10 15 18 18 16 14 14 14 15 15 16 16 14 13 13 14 14 14 13 13 11 13 12 9 10 9 13 11 11 10 9 9 8 8 6 4
12 12 14 10 6 1 1 2 5 4 5 4 6 13 17 18 18 16 15 16 16 15 14 13 14 14 13 12 11 9 9 9 8 7 8 6 4 6 10 12 11 10 9 8 7 7 7 5 4
14 16 15 11 7 5 2 3 5 5 5 6 9 12 16 17 16 15 14 15 14 14 13 13 12 10 11 9 9 7 6 7 7 8 7 5 5 6 7 5 6 6 7 5 6 5 4 3 2
16 16 15 13 7 6 7 5 6 3 2 6 10 15 16 16 16 15 14 13 14 13 12 12 12 8 7 9 7 6 6 6 6 7 7 5 3 4 5 4 5 4 3 2 3 2 2 2 1
16 16 15 13 10 9 9 8 7 5 5 7 9 14 16 16 15 14 13 13 13 11 11 11 10 8 6 6 5 6 6 7 6 6 4 5 4 4 4 3 2 3 3 3 1 2 2 2 1
14 14 15 13 12 11 10 9 8 6 5 8 10 12 14 14 15 14 13 13 13 13 12 11 10 9 6 5 3 4 5 4 6 5 5 5 4 4 4 3 2 2 2 2 2 3 2 1 1
15 15 15 14 13 12 10 10 9 7 6 8 10 11 13 13 13 14 14 13 14 13 12 11 10 9 8 7 5 4 4 5 5 5 5 4 5 5 4 4 2 2 3 3 1 2 2 2 2
15 15 16 15 13 11 10 10 5 7 8 8 8 10 11 11 12 12 13 12 12 12 12 11 11 11 9 6 5 4 4 5 5 6 5 5 6 6 4 4 3 3 3 2 2 1 1 1 1
15 16 16 13 11 11 12 9 7 9 9 8 7 8 10 12 11 12 14 13 12 12 12 11 9 11 9 8 5 4 3 4 4 5 5 5 6 6 4 3 3 4 3 3 3 2 1 1 1
13 14 12 10 8 11 11 9 8 10 11 9 9 9 10 12 12 12 13 12 12 12 12 12 10 10 9 7 5 3 4 4 3 4 5 6 5 5 4 4 4 3 3 2 2 3 2 1 1
15 13 11 9 7 8 9 9 8 9 9 7 8 8 9 11 13 13 13 13 13 12 12 12 11 10 8 6 6 6 5 4 4 4 7 7 6 6 4 4 4 2 3 3 4 3 3 2 1
16 14 11 9 7 7 7 10 9 7 7 7 7 9 10 12 13 13 13 13 13 13 12 12 11 12 10 7 5 5 5 4 4 5 6 7 7 6 6 4 4 3 3 3 3 2 2 2 2
14 13 12 10 8 9 9 12 9 7 5 5 7 8 10 13 14 14 14 13 14 14 14 13 12 12 11 9 6 5 5 4 4 5 5 6 7 6 4 6 4 4 4 4 4 4 3 2 2
12 13 13 11 10 9 9 8 6 6 6 7 7 9 10 12 14 14 15 14 14 14 13 12 12 12 11 10 9 10 8 7 7 6 6 6 6 7 6 6 4 4 3 5 5 5 3 2 2
13 11 10 11 12 13 11 8 5 5 6 8 9 10 10 13 14 14 14 14 14 14 13 12 12 11 11 10 10 9 8 6 5 6 8 7 6 6 7 6 5 4 3 5 4 4 3 2 2
12 11 10 10 10 13 10 9 6 5 6 5 6 8 10 12 13 13 13 12 12 13 13 13 12 11 11 10 10 9 9 8 8 8 8 7 5 5 6 7 5 5 4 4 4 3 3 1 0
12 10 8 8 8 8 8 8 4 7 7 5 4 6 9 11 12 13 14 13 13 14 13 12 12 12 12 11 10 9 9 8 8 8 8 7 6 5 7 7 6 5 4 4 4 4 3 3 2
13 14 10 7 6 4 4 6 3 6 7 7 6 6 7 10 12 13 14 13 13 14 13 12 12 12 12 11 10 8 8 7 6 7 7 7 6 6 8 7 6 6 6 6 4 4 4 3 3
13 13 13 10 8 6 5 6 3 4 6 8 8 8 7 8 11 12 14 14 13 14 13 13 13 12 12 11 9 8 9 7 7 7 7 6 5 7 9 8 7 6 6 5 5 3 4 4 4
14 12 9 8 6 6 4 3 2 1 2 4 7 7 7 7 10 12 12 13 12 12 12 12 12 12 11 10 9 9 9 8 7 7 6 6 6 7 9 8 8 7 6 6 5 4 4 4 3
13 13 10 7 6 7 4 2 0 2 2 1 4 7 7 7 10 11 11 12 12 12 13 12 12 12 11 11 10 9 9 8 8 7 7 6 6 7 8 8 7 7 7 6 5 4 6 5 4
10 11 9 6 7 7 5 1 3 2 1 1 3 6 6 6 8 11 12 12 12 12 12 12 12 12 11 10 9 9 9 9 8 8 8 7 7 7 7 7 7 7 7 7 6 6 6 6 5
Wind_Direction
227 238 235 247 244 247 265 16 69 73 69 61 51 60 68 60 69 99 124 127 121 123 129 130 128 128 126 123 120 117 114 112 108 105 102 100 98 97 97 98 96 95 96 96 97 97 97 96 96
246 244 239 245 249 267 275 94 83 76 81 89 78 69 75 73 84 111 122 122 122 127 135 132 130 129 127 125 123 121 118 115 112 109 106 104 102 100 99 99 98 97 98 98 98 98 98 97 98
258 258 258 250 245 251 275 85 94 94 91 93 88 70 67 79 92 112 123 127 127 132 131 130 133 130 129 127 125 124 121 118 115 112 110 107 105 103 101 100 100 99 99 99 99 99 99 99 101
248 241 239 263 276 269 93 90 95 103 103 93 97 87 77 71 100 120 131 132 131 132 129 133 134 131 130 129 127 126 124 121 119 116 113 111 108 106 104 103 102 101 100 101 101 102 101 101 102
243 255 245 255 264 261 103 105 112 122 115 108 101 101 97 88 108 127 137 134 136 130 128 135 135 133 132 131 130 128 126 125 124 120 117 114 111 109 107 106 104 103 103 104 105 104 105 106 104
244 247 254 261 270 234 139 131 136 116 122 117 110 110 105 119 123 137 140 139 134 129 130 134 136 135 134 134 133 131 130 129 127 125 122 119 115 112 111 111 109 107 107 108 108 108 109 109 105
254 268 271 272 266 252 140 115 129 129 123 105 112 111 119 130 133 140 138 137 131 130 131 139 139 139 138 137 136 136 134 133 131 129 127 125 122 119 117 114 113 112 112 113 113 113 115 116 118
254 275 281 275 251 239 124 116 136 152 104 105 109 105 131 139 144 141 142 136 131 132 139 145 145 144 145 142 142 140 140 138 136 135 135 131 130 127 126 119 115 116 117 117 119 122 124 129 142
249 262 275 288 289 158 140 144 168 156 134 110 78 100 134 142 147 147 147 139 138 138 144 147 148 151 152 149 145 146 145 145 144 144 144 145 147 140 140 119 123 122 123 125 128 135 139 148 171
238 253 263 280 310 22 156 175 169 190 161 151 111 109 132 147 153 157 158 152 149 146 150 149 152 158 158 151 146 155 156 154 164 151 159 174 144 132 125 129 132 133 134 139 146 152 162 179 182
237 251 273 288 304 315 252 233 222 213 188 160 144 144 147 155 158 162 164 157 152 151 155 151 153 160 157 144 159 162 153 158 169 155 166 163 136 132 127 140 140 147 156 164 155 178 194 192 178
242 255 268 284 298 294 283 256 245 241 175 141 146 154 158 164 166 168 166 158 154 156 158 153 152 156 149 148 163 157 152 163 160 155 169 150 143 140 141 146 155 163 165 158 160 154 135 146 123
243 255 263 267 272 266 270 266 259 240 165 143 148 158 163 170 169 168 165 160 155 157 158 152 150 151 148 143 158 159 151 160 146 151 163 145 144 138 128 127 148 151 140 144 138 109 102 90 95
261 257 262 264 259 255 252 259 259 256 185 160 162 165 170 173 170 167 165 164 162 164 160 152 152 147 141 143 158 144 145 141 141 147 152 156 139 125 127 131 132 118 122 120 128 126 111 106 94
264 265 260 255 250 246 248 252 252 255 216 189 178 173 173 171 171 170 168 166 166 166 158 154 156 151 149 156 171 152 147 149 140 138 145 151 134 133 141 137 146 119 113 121 128 123 133 172 148
254 253 255 251 239 233 235 249 243 223 227 205 188 176 169 167 173 168 162 164 163 162 157 162 167 158 159 159 171 155 154 150 142 142 145 153 138 147 154 147 150 138 136 142 143 163 154 116 123
247 243 246 248 230 227 227 237 225 209 215 205 190 178 170 166 169 163 162 164 160 160 159 164 164 161 164 161 162 157 145 142 138 142 146 153 149 153 157 146 135 155 154 157 178 140 135 142 132
241 246 249 246 226 225 234 235 221 218 218 200 188 180 172 168 167 162 160 160 157 160 160 165 162 161 162 158 158 153 151 149 146 144 144 149 156 159 165 145 149 176 153 141 113 119 116 147 212
260 270 266 257 243 242 248 251 240 225 215 200 186 176 169 165 161 159 158 161 159 159 160 163 166 164 161 166 168 167 167 166 157 155 151 158 165 161 169 151 153 175 146 153 160 152 167 201 178
251 265 270 269 258 253 260 262 256 229 216 207 188 177 173 161 155 158 158 162 163 163 166 169 172 169 170 171 170 169 161 169 170 166 158 165 166 163 174 154 162 163 150 162 166 159 185 198 178
247 255 261 264 265 260 260 263 261 245 220 206 196 182 177 162 160 162 166 168 169 171 173 175 174 172 172 169 168 169 158 175 171 162 165 171 166 170 173 155 172 164 167 167 178 179 193 203 190
245 251 262 268 266 265 256 265 245 224 214 216 207 182 176 163 162 164 169 173 176 176 175 172 173 173 173 173 179 176 175 181 178 171 167 169 171 172 166 163 174 177 174 160 190 182 182 195 212
246 258 261 267 269 270 262 260 247 194 213 217 202 183 173 160 162 165 169 172 175 176 175 174 172 172 175 182 185 182 182 180 172 170 162 169 174 175 170 167 170 179 175 171 178 149 186 201 216
241 250 255 258 263 259 260 262 245 187 183 201 196 167 157 155 157 159 163 164 171 173 173 174 173 174 178 184 185 188 183 178 176 173 165 171 170 178 174 170 165 176 180 162 154 161 184 210 209
228 235 238 240 241 259 288 262 229 156 154 155 165 158 153 150 154 158 162 166 169 172 172 171 172 177 179 182 184 189 185 179 176 175 172 174 171 175 177 172 166 179 169 159 162 178 191 183 177
221 231 237 245 251 264 270 265 265 141 133 131 136 147 143 149 156 161 166 168 172 173 171 170 171 175 178 180 179 182 183 180 178 180 174 178 177 174 166 164 170 176 169 174 167 181 190 174 180
223 231 241 250 258 255 231 241 207 141 126 124 129 137 154 157 155 161 167 169 173 172 171 174 173 175 177 177 176 180 186 187 178 174 174 176 175 164 161 166 173 176 173 170 165 196 189 159 182
236 232 243 254 267 272 257 242 327 13 111 134 133 146 158 154 153 159 165 166 169 168 167 170 173 174 175 176 177 181 189 189 172 173 184 177 171 157 161 168 173 173 172 171 175 191 173 168 189
221 230 240 256 262 268 268 252 177 315 289 169 136 134 144 158 156 158 162 162 163 164 166 169 170 171 175 179 180 180 182 181 173 177 181 173 163 159 166 170 172 171 173 174 183 194 171 180 191
226 233 237 250 267 279 281 258 175 123 285 324 106 111 130 156 155 156 159 161 163 166 167 169 171 173 176 178 178 180 177 176 178 179 176 170 166 166 168 170 169 174 176 177 185 202 180 180 191